Regional Weather Roundup
Issued by NWS Austin/San Antonio, TX

Home | Current Version | Previous Version | Text Only | Print | Product List | Glossary On
Versions: 1 2 3 4 5 6 7 8 9 10 11 12 13 14 15 16 17 18 19 20 21 22 23 24 25 26 27 28 29 30 31 32 33 34 35 36 37 38 39 40 41 42 43 44 45 46 47 48 49 50
000
ASUS44 KEWX 201310
RWREWX
SOUTH TEXAS REGIONAL WEATHER ROUNDUP
NATIONAL WEATHER SERVICE AUSTIN/SAN ANTONIO TX
800 AM CDT SAT APR 20 2019

NOTE: "FAIR" INDICATED FEW OR NO CLOUDS BELOW 12,000 FEET WITH NO
SIGNIFICANT WEATHER AND/OR OBSTRUCTIONS TO VISIBILITY.

* - THESE STATIONS ARE NOT NWS OR FAA STATIONS...AND ARE NOT SUBJECT
    TO NWS AND FAA QUALITY CONTROL.

TXZ171-172-183>190-201400-
TEXAS HILL COUNTRY AND EDWARDS PLATEAU

CITY           SKY/WX    TMP DP  RH WIND       PRES   REMARKS
JUNCTION       SUNNY     43  40  89 NW6       30.12R WCI  39
*LLANO         SUNNY     46  45  93 CALM      30.15R
BURNET         SUNNY     50  41  71 NE3       30.13R
*HORSESHOE BAY SUNNY     48  45  90 CALM      30.12R
*KERRVILLE     SUNNY     42  39  89 CALM      30.13R
*FREDERICKSBRG SUNNY     44  41  90 CALM      30.13R
*ROCKSPRINGS     N/A     52  39  62 SE12      30.16R
*BOERNE STAGE  SUNNY     45  41  87 CALM      30.15R
*CASTROVILLE   SUNNY     48  46  93 NW5       30.15R WCI  47
HONDO          SUNNY     50  46  86 N7        30.12R WCI  47
*UVALDE        SUNNY     52  44  74 NE7       30.12R
DEL RIO        PTCLDY    57  42  57 E3        30.08R
LAUGHLIN AFB   NOT AVBL
CARRIZO SPRGS  SUNNY     52  48  87 CALM      30.09R
*FAITH RANCH   CLEAR     57  48  72 NE5       30.08R
$$

TXZ173-191>194-202-209-217>225-228-201400-
CENTRAL AND SOUTH CENTRAL TEXAS

CITY           SKY/WX    TMP DP  RH WIND       PRES   REMARKS
GEORGETOWN     SUNNY     49  45  86 CALM      30.14R
AUSTIN/BERGSTM SUNNY     52  45  77 SW3       30.12R
AUSTIN/MABRY   SUNNY     51  45  79 CALM      30.13R
*AUSTIN/EXEC   SUNNY     50  46  87 CALM      30.13R
*LAGO VISTA    SUNNY     55  38  52 SW3       30.13R
SAN MARCOS     SUNNY     50  45  83 CALM      30.14R
NEW BRAUNFELS  SUNNY     51  44  77 CALM      30.12R
RANDOLPH AFB   NOT AVBL
PT SAN ANTONIO NOT AVBL
SAN ANTONIO    SUNNY     51  45  79 N3        30.14R
STINSON FIELD  SUNNY     53  47  79 CALM      30.12R
*LA GRANGE     SUNNY     50  50  99 CALM      30.12R
*GIDDINGS      SUNNY     54  51  91 CALM      30.13R
*GONZALES      SUNNY     50  49  95 CALM      30.14R
$$

TXZ163>164-176>182-195>201-210>213-226-227-235-201400-
SOUTHEAST TEXAS

CITY           SKY/WX    TMP DP  RH WIND       PRES   REMARKS
COLLEGE STN    SUNNY     50  49  96 CALM      30.12R
*BRYAN         SUNNY     50  50 100 CALM      30.13R
*CALDWELL      SUNNY     51  47  86 CALM      30.12R
*CROCKETT        N/A     45  45 100 CALM      30.13R
*BRENHAM       SUNNY     49  49  99 CALM      30.13R
HUNTSVILLE     SUNNY     51  45  79 SW3       30.11R
CONROE         SUNNY     47  47 100 CALM      30.11R
HOUSTON BUSH   SUNNY     53  49  86 CALM      30.12R
HOUSTON HOBBY  FAIR      55  45  68 CALM      30.11R
*HOUSTON SW AP FAIR      49  49  99 CALM      30.12R
PEARLAND       FAIR      52  49  89 CALM      30.13R
HOUSTON HOOKS  FAIR      51  49  92 CALM      30.12R
ELLINGTON FLD  NOT AVBL
SUGAR LAND     FAIR      52  49  89 W5        30.11R
*HOUSTON EXEC  FAIR      52  48  87 W5        30.14R
*CLEVELAND MUN FAIR      46  46 100 CALM      30.12R
*WHARTON       SUNNY     52  46  80 CALM      30.15R
*COLUMBUS      FAIR      49  45  86 CALM      30.14R
*EAGLE LAKE    SUNNY     53  47  81 CALM      30.13
$$

TXZ214>216-236>238-201400-
THE UPPER TEXAS COAST

CITY           SKY/WX    TMP DP  RH WIND       PRES   REMARKS
*ORANGE        FAIR      52  49  89 CALM      30.11R
PORT ARTHUR    FAIR      54  46  74 W5        30.10R
GALVESTON      FAIR      61  50  67 CALM      30.12R
ANGLETON       FAIR      50  46  86 CALM      30.13R
*BAY CITY      SUNNY     50  46  88 CALM      30.14R
PALACIOS       SUNNY     57  51  80 CALM      30.14R
$$

TXZ229>234-239>247-201400-
TEXAS COASTAL BEND AND RIO GRANDE PLAINS

CITY           SKY/WX    TMP DP  RH WIND       PRES   REMARKS
VICTORIA       SUNNY     55  49  80 CALM      30.14R
*BEEVILLE      SUNNY     58  51  76 CALM      30.12R
ROCKPORT       SUNNY     61  54  77 SE3       30.12R
*PORT ARANSAS  SUNNY     69  56  63 SE7       30.13S
*PORT LAVACA   SUNNY     58  52  82 CALM      30.14R
*INGLESIDE     SUNNY     61  56  84 CALM      30.12R
CORPUS CHRISTI MOSUNNY   61  57  87 CALM      30.12R
CORPUS NAS     SUNNY     67  63  87 SW3       30.12R
*ROBSTOWN      NOT AVBL
ALICE          SUNNY     55  53  93 CALM      30.11R
KINGSVILLE NAS SUNNY     57  55  93 MISG      30.11R
COTULLA        SUNNY     56  49  77 E5        30.10R
LAREDO         SUNNY     63  49  60 SE8       30.08R
$$

TXZ248>255-201400-
DEEP SOUTH TEXAS

CITY           SKY/WX    TMP DP  RH WIND       PRES   REMARKS
BROWNSVILLE    FAIR      66  61  84 SE6       30.11R
PORT ISABEL    FAIR      64  59  83 SE7       30.10R
HARLINGEN      SUNNY     61  57  87 SE7       30.10R
*HEBBRONVILLE  SUNNY     55  50  85 S3        30.11R
MCALLEN        SUNNY     64  57  78 SE8       30.10R
*WESLACO       CLOUDY    63  57  79 SE5       30.10
FALFURRIAS     SUNNY     56  52  88 CALM      30.11R
EDINBURG       FAIR      59  56  88 CALM      30.11R
*ZAPATA        FAIR      62  51  68 E5        30.09R
$$

TXZ213>215-236>238-242>244-246-247-251-254-255-201400-
CMAN STATIONS

STATION/POSITION TIME  TEMP    WIND        PRES    WAVE
                       AIR SEA DIR/SP/G            HT/PER
                 (UTC) (F)     (DEG/KT/KT) (MB)    (FT/S)
SABINE PASS      1236   54 70  290/  3/  6 1020.6
SEA RIM ST PARK  1200   54     290/  7/  8 1018.5
NORTH JETTY/GLS  1236   62 68  330/  5/  6 1018.9
EAGLE POINT      1236   56 67  300/  4/  5 1019.6
MORGANS POINT    1236   59 69  290/  4/  5 1019.5
PORT O`CONNOR    1236   67 70   70/  5/  6 1019.9
PORT ARANSAS     1200   69 70  130/  7/  7 1019.3
MALAQUITE BEACH  1242   88 71  220/  3/  3 1019.4
BAFFIN BAY       1242   68 72  160/  6/  6 1019.9
PORT ISABEL      1242   69 74  120/  5/  6 1019.5
$$




USA.gov is the U.S. government's official web portal to all federal, state and local government web resources and services.